Regional Weather Roundup
Issued by NWS Goodland, KS

Home | Current Version | Previous Version | Graphics & Text | Print | Product List | Glossary On
Versions: 1 2 3 4 5 6 7 8 9 10 11 12 13 14 15 16 17 18 19 20 21 22 23 24 25 26 27 28 29 30 31 32 33 34 35 36 37 38 39 40 41 42 43 44 45 46 47 48 49 50
000
ASUS43 KGLD 191759
RWRGLD

GOODLAND FORECAST AREA HOURLY WEATHER ROUNDUP
NATIONAL WEATHER SERVICE GOODLAND KS
1200 PM MDT TUE AUG 19 2014

...OFFICIAL OBSERVATIONS...

CITY           SKY/WX    TMP DP  RH WIND       PRES   REMARKS
GOODLAND KS    PTSUNNY   85  57  38 S7        29.90F
HILL CITY KS   MOSUNNY   85  65  51 E8        29.85F
IMPERIAL NEB   SUNNY     85  57  38 E6        29.87F
MCCOOK NEB     SUNNY     87  58  37 SE8       29.85F
AKRON CO       MOSUNNY   86  51  29 S13       29.94F
BURLINGTON CO  SUNNY     83  53  35 VRB5      29.92F
LIMON CO       SUNNY     88  36  15 MISG      29.97F
$$

...UNOFFICIAL OBSERVATIONS...

CITY           SKY/WX    TMP DP  RH WIND       PRES   REMARKS
COLBY KS       SUNNY     81  66  61 E6        29.90F
GOVE KS          N/A     90  32  12 CALM        N/A
LENORA KS        N/A     82  32  16 CALM        N/A
NORTON KS      SUNNY     88  57  35 S6        29.85F
SHARON SPRINGS   N/A     89  53  28 S8          N/A
TRENTON NEB      N/A     87  32  14 S10         N/A
KIT CARSON CO    N/A     85  53  33 MISG        N/A
YUMA CO          N/A     81  58  44 CALM        N/A
$$


USA.gov is the U.S. government's official web portal to all federal, state and local government web resources and services.